Home   Weather   Güstrow   Past weeks

Flag for Germany Past Weather in Güstrow, Mecklenburg-Western Pomerania, Germany — Yesterday and Last 2 Weeks

Now
43 °F

Light rain. More clouds than sun.


Feels Like: 35 °F
Forecast: 40 / 48 °F
Wind: 16 mph from West

Location: Laage

Current Time: Feb 21, 2017 at 8:29:52 am

Latest Report: Feb 21, 2017 at 7:41 am


Visibility: N/A

Pressure: 29.65 "Hg

Humidity: 87%

Dew Point: 39 °F

Location of GüstrowLocation

Past Weather in Güstrow — Graph

°F

Güstrow Temperature Yesterday

Maximum temperature yesterday: 48 °F (at 5:06 pm)
Minimum temperature yesterday: 41 °F (at 12:20 am)
Average temperature yesterday: 45 °F

High & Low Weather Summary for the Past Weeks

 TemperatureHumidityPressure
High50 °F (Feb 16, 12:56 pm)100% (Feb 17, 10:20 am)30.69 "Hg (Feb 17, 10:20 am)
Low19 °F (Feb 9, 11:20 pm)46% (Feb 15, 2:20 pm)29.56 "Hg (Feb 20, 7:38 pm)
Average33 °F81%30.30 "Hg
* Reported Feb 6 6:20 am — Feb 21 6:20 am, Güstrow, Weather by CustomWeather, © 2017

Note: Actual official high and low records may vary slightly from our data, if they occured in-between our weather recording intervals... More about our weather records

Advertising

Güstrow Weather History for the Previous 24 Hours

Scroll right to see more
 ConditionsComfort  
Time TempWeatherWind HumidityBarometerVisibility
6:20 am
Tue, Feb 21
45 °FLight rain. Passing clouds.16 mph81%29.62 "HgN/A
5:20 am45 °FPassing clouds.20 mph81%29.62 "HgN/A
4:20 am45 °FPassing clouds.17 mph81%29.62 "HgN/A
3:20 am45 °FPassing clouds.17 mph81%29.62 "HgN/A
2:20 am45 °FPassing clouds.18 mph81%29.62 "HgN/A
1:20 am45 °FPassing clouds.18 mph87%29.62 "HgN/A
12:20 am46 °FPassing clouds.22 mph82%29.62 "HgN/A
11:20 pm
Mon, Feb 20
46 °FPassing clouds.24 mph87%29.59 "HgN/A
10:20 pm48 °FPassing clouds.23 mph87%29.59 "HgN/A
9:42 pm48 °FPartly cloudy.21 mph94%29.56 "Hg5 mi
9:20 pm48 °FDrizzle. Fog.22 mph94%29.56 "Hg1 mi
8:43 pm48 °FDrizzle. Fog.22 mph94%29.59 "Hg1 mi
8:20 pm48 °FDrizzle. Fog.18 mph94%29.56 "Hg2 mi
7:44 pm48 °FDrizzle. Fog.16 mph94%29.56 "Hg1 mi
7:38 pm48 °FDrizzle. Fog.16 mph94%29.56 "Hg2 mi
6:40 pm48 °FPassing clouds.15 mph94%29.59 "Hg4 mi
6:29 pm48 °FDrizzle. Fog.16 mph94%29.59 "Hg2 mi
5:35 pm48 °FPassing clouds.14 mph94%29.59 "Hg5 mi
5:06 pm48 °FDrizzle. Fog.16 mph87%29.62 "Hg2 mi
4:20 pm46 °FDrizzle. Partly sunny.15 mph93%29.62 "HgN/A
3:20 pm46 °FDrizzle. Partly sunny.14 mph93%29.65 "Hg6 mi
3:00 pm46 °FDrizzle. Partly sunny.16 mph93%29.65 "Hg6 mi
2:20 pm46 °FDrizzle. Partly sunny.17 mph93%29.68 "Hg5 mi
1:47 pm46 °FDrizzle. Partly sunny.17 mph87%29.68 "Hg5 mi
1:20 pm46 °FDrizzle. Partly sunny.18 mph87%29.71 "Hg4 mi
12:20 pm45 °FPartly sunny.18 mph93%29.74 "Hg4 mi
11:36 am45 °FDrizzle. Partly sunny.15 mph93%29.77 "Hg4 mi
11:20 am45 °FDrizzle. Fog.15 mph93%29.77 "Hg2 mi
10:20 am45 °FDrizzle. Fog.13 mph87%29.80 "Hg2 mi
9:43 am43 °FDrizzle. Fog.13 mph93%29.80 "Hg2 mi
9:32 am45 °FRain. Partly sunny.13 mph87%29.80 "Hg4 mi
8:20 am43 °FPartly sunny.12 mph87%29.83 "HgN/A
Weather by CustomWeather, © 2017

See weather overviewHow to use our weather pages